RYR8AT LEMD-LPPT

Flight info

Callsign RYR8AT
Flight time 1h 3m
Altitude 31000
Route CCS DCT ELVAR DCT UPULO
Aircraft B738/M-SDE3FGILRWY/SB1

Departure

Time 2026-05-01 12:34
Airport Adolfo Suárez Madrid–Barajas Airport (LEMD)

Arrival

Time 2026-05-01 13:37
Airport Lisbon Humberto Delgado Airport (LPPT)
Time Latitude Longitude Altitude Speed Heading
2026-05-01 12:06 40.49082 -3.58985 1952 ft 0 kts 269°
2026-05-01 12:25 40.49082 -3.58968 1952 ft 2 kts 268°
2026-05-01 12:25 40.49081 -3.58926 1952 ft 2 kts 289°
2026-05-01 12:25 40.49074 -3.58907 1952 ft 2 kts 324°
2026-05-01 12:26 40.49059 -3.58901 1955 ft 2 kts 360°
2026-05-01 12:26 40.49057 -3.58901 1954 ft 0 kts 360°
2026-05-01 12:29 40.49074 -3.58901 1952 ft 4 kts 359°
2026-05-01 12:29 40.49184 -3.58902 1950 ft 11 kts 359°
2026-05-01 12:30 40.49242 -3.58716 1948 ft 15 kts 90°
2026-05-01 12:30 40.49243 -3.58565 1946 ft 18 kts 90°
2026-05-01 12:30 40.49244 -3.58388 1943 ft 20 kts 89°
2026-05-01 12:31 40.49245 -3.58198 1939 ft 21 kts 90°
2026-05-01 12:31 40.49245 -3.58008 1933 ft 20 kts 89°
2026-05-01 12:31 40.49246 -3.57825 1927 ft 20 kts 89°
2026-05-01 12:31 40.49248 -3.57658 1924 ft 10 kts 85°
2026-05-01 12:32 40.49257 -3.57602 1924 ft 0 kts 71°
2026-05-01 12:32 40.49257 -3.57601 1924 ft 1 kts 71°
2026-05-01 12:32 40.49266 -3.57576 1924 ft 6 kts 64°
2026-05-01 12:33 40.49291 -3.57507 1924 ft 10 kts 64°
2026-05-01 12:33 40.49459 -3.57463 1925 ft 48 kts 359°
2026-05-01 12:33 40.49795 -3.57465 1930 ft 95 kts 359°
2026-05-01 12:33 40.50672 -3.57469 1946 ft 155 kts 360°
2026-05-01 12:34 40.51904 -3.57468 2128 ft 191 kts 359°
2026-05-01 12:34 40.53195 -3.57453 3111 ft 178 kts
2026-05-01 12:34 40.54415 -3.57523 3940 ft 178 kts 355°
2026-05-01 12:34 40.55725 -3.57733 4240 ft 207 kts 338°
2026-05-01 12:35 40.56912 -3.58930 4453 ft 224 kts 298°
2026-05-01 12:35 40.57365 -3.60867 5007 ft 222 kts 282°
2026-05-01 12:35 40.58217 -3.62584 5486 ft 237 kts 323°
2026-05-01 12:35 40.59633 -3.63644 6196 ft 236 kts 327°
2026-05-01 12:36 40.61040 -3.64893 6825 ft 244 kts 322°
2026-05-01 12:36 40.62370 -3.66214 7580 ft 244 kts 319°
2026-05-01 12:36 40.63653 -3.67692 8361 ft 240 kts 302°
2026-05-01 12:36 40.64181 -3.69713 8857 ft 246 kts 270°
2026-05-01 12:37 40.64156 -3.72069 9100 ft 268 kts 265°
2026-05-01 12:37 40.64077 -3.74570 9683 ft 278 kts 265°
2026-05-01 12:37 40.63999 -3.77132 10389 ft 285 kts 265°
2026-05-01 12:37 40.63922 -3.79853 10571 ft 309 kts 266°
2026-05-01 12:38 40.63850 -3.82780 10790 ft 330 kts 266°
2026-05-01 12:38 40.63788 -3.85781 11556 ft 329 kts 266°
2026-05-01 12:38 40.63730 -3.88809 12233 ft 335 kts 267°
2026-05-01 12:38 40.63673 -3.91915 12853 ft 340 kts 266°
2026-05-01 12:39 40.63619 -3.95024 13729 ft 342 kts 267°
2026-05-01 12:39 40.63564 -3.98191 14297 ft 349 kts 267°
2026-05-01 12:39 40.63512 -4.01412 14975 ft 354 kts 267°
2026-05-01 12:39 40.63455 -4.04671 15707 ft 355 kts 267°
2026-05-01 12:40 40.63396 -4.07931 16481 ft 356 kts 267°
2026-05-01 12:40 40.63337 -4.11199 17258 ft 357 kts 267°
2026-05-01 12:40 40.63276 -4.14474 18002 ft 360 kts 268°
2026-05-01 12:40 40.63214 -4.17817 18475 ft 368 kts 268°
2026-05-01 12:41 40.63149 -4.21215 18974 ft 374 kts 268°
2026-05-01 12:41 40.63085 -4.24625 19698 ft 373 kts 267°
2026-05-01 12:41 40.63018 -4.28056 20234 ft 378 kts 268°
2026-05-01 12:41 40.62950 -4.31528 20841 ft 380 kts 267°
2026-05-01 12:42 40.62880 -4.35036 21364 ft 385 kts 267°
2026-05-01 12:42 40.62808 -4.38560 21991 ft 387 kts 267°
2026-05-01 12:42 40.62735 -4.42119 22520 ft 390 kts 267°
2026-05-01 12:42 40.62661 -4.45708 23053 ft 394 kts 267°
2026-05-01 12:43 40.62584 -4.49326 23591 ft 397 kts 267°
2026-05-01 12:43 40.62426 -4.52979 24013 ft 401 kts 259°
2026-05-01 12:43 40.61570 -4.56447 24534 ft 400 kts 243°
2026-05-01 12:43 40.60050 -4.59520 24998 ft 403 kts 234°
2026-05-01 12:44 40.58354 -4.62470 25460 ft 405 kts 233°
2026-05-01 12:44 40.56637 -4.65396 26030 ft 403 kts 233°
2026-05-01 12:44 40.53268 -4.71195 27309 ft 396 kts 234°
2026-05-01 12:45 40.49965 -4.76969 28423 ft 394 kts 234°
2026-05-01 12:45 40.48325 -4.79846 29035 ft 392 kts 234°
2026-05-01 12:45 40.46699 -4.82699 29632 ft 390 kts 234°
2026-05-01 12:46 40.45077 -4.85539 30205 ft 388 kts 234°
2026-05-01 12:46 40.43455 -4.88375 30649 ft 387 kts 234°
2026-05-01 12:46 40.41838 -4.91198 31103 ft 386 kts 234°
2026-05-01 12:46 40.40216 -4.94029 31135 ft 391 kts 234°
2026-05-01 12:47 40.36963 -4.99695 31157 ft 384 kts 234°
2026-05-01 12:47 40.33767 -5.05256 31155 ft 382 kts 234°
2026-05-01 12:48 40.30557 -5.10833 31166 ft 384 kts 234°
2026-05-01 12:48 40.27329 -5.16432 31169 ft 386 kts 234°
2026-05-01 12:49 40.24090 -5.22041 31154 ft 387 kts 234°
2026-05-01 12:49 40.20863 -5.27616 31161 ft 387 kts 234°
2026-05-01 12:50 40.17618 -5.33214 31148 ft 385 kts 234°
2026-05-01 12:50 40.14395 -5.38763 31147 ft 382 kts 235°
2026-05-01 12:51 40.11190 -5.44272 31143 ft 379 kts 235°
2026-05-01 12:52 40.06410 -5.52470 31148 ft 378 kts 235°
2026-05-01 12:52 40.01625 -5.60659 31146 ft 379 kts 235°
2026-05-01 12:53 39.96807 -5.68880 31141 ft 381 kts 235°
2026-05-01 12:54 39.93580 -5.74373 31148 ft 381 kts 235°
2026-05-01 12:54 39.88747 -5.82582 31136 ft 380 kts 235°
2026-05-01 12:55 39.83939 -5.90729 31129 ft 377 kts 236°
2026-05-01 12:56 39.80745 -5.96129 31131 ft 376 kts 236°
2026-05-01 12:56 39.77553 -6.01518 31131 ft 376 kts 236°
2026-05-01 12:57 39.74361 -6.06898 31129 ft 376 kts 236°
2026-05-01 12:57 39.69563 -6.14966 31129 ft 377 kts 236°
2026-05-01 12:58 39.66358 -6.20345 31130 ft 377 kts 236°
2026-05-01 12:59 39.61576 -6.28351 31120 ft 375 kts 237°
2026-05-01 12:59 39.56784 -6.36357 31134 ft 373 kts 237°
2026-05-01 13:00 39.52081 -6.44362 31125 ft 369 kts 243°
2026-05-01 13:01 39.48671 -6.53198 31134 ft 364 kts 248°
2026-05-01 13:02 39.45358 -6.62017 31129 ft 362 kts 247°
2026-05-01 13:07 39.23361 -7.18580 25751 ft 324 kts 245°
2026-05-01 13:07 39.22342 -7.21172 25342 ft 324 kts 244°
2026-05-01 13:07 39.21318 -7.23755 24953 ft 323 kts 243°
2026-05-01 13:08 39.20293 -7.26288 24563 ft 323 kts 243°
2026-05-01 13:08 39.19248 -7.28855 24177 ft 323 kts 243°
2026-05-01 13:08 39.18202 -7.31421 23785 ft 324 kts 243°
2026-05-01 13:08 39.17141 -7.34024 23343 ft 324 kts 243°
2026-05-01 13:09 39.16095 -7.36591 22884 ft 324 kts 242°
2026-05-01 13:09 39.15048 -7.39160 22430 ft 324 kts 242°
2026-05-01 13:09 39.14002 -7.41726 21990 ft 323 kts 242°
2026-05-01 13:09 39.12958 -7.44286 21560 ft 323 kts 242°
2026-05-01 13:10 39.11908 -7.46857 21130 ft 323 kts 242°
2026-05-01 13:10 39.10879 -7.49378 20698 ft 323 kts 242°
2026-05-01 13:10 39.09832 -7.51939 20285 ft 323 kts 242°
2026-05-01 13:10 39.08788 -7.54492 19874 ft 323 kts 241°
2026-05-01 13:11 39.07743 -7.57044 19470 ft 322 kts 241°
2026-05-01 13:11 39.06697 -7.59600 19074 ft 322 kts 241°
2026-05-01 13:11 39.05652 -7.62147 18679 ft 322 kts 240°
2026-05-01 13:11 39.04611 -7.64682 18270 ft 321 kts 240°
2026-05-01 13:12 39.03592 -7.67242 17823 ft 321 kts 241°
2026-05-01 13:12 39.02609 -7.69816 17377 ft 320 kts 242°
2026-05-01 13:12 39.01637 -7.72389 16938 ft 320 kts 242°
2026-05-01 13:12 39.00664 -7.74961 16494 ft 319 kts 242°
2026-05-01 13:13 38.99691 -7.77524 16079 ft 319 kts 241°
2026-05-01 13:13 38.98717 -7.80081 15662 ft 318 kts 241°
2026-05-01 13:13 38.97742 -7.82636 15250 ft 318 kts 241°
2026-05-01 13:13 38.96770 -7.85178 14838 ft 317 kts 241°
2026-05-01 13:14 38.95798 -7.87716 14435 ft 316 kts 241°
2026-05-01 13:14 38.94827 -7.90251 14039 ft 316 kts 241°
2026-05-01 13:14 38.93858 -7.92776 13613 ft 315 kts 241°
2026-05-01 13:14 38.92890 -7.95298 13179 ft 315 kts 241°
2026-05-01 13:15 38.91921 -7.97816 12723 ft 314 kts 241°
2026-05-01 13:15 38.90983 -8.00346 12302 ft 315 kts 246°
2026-05-01 13:15 38.90598 -8.03131 11862 ft 321 kts 267°
2026-05-01 13:15 38.90814 -8.05986 11471 ft 322 kts 274°
2026-05-01 13:16 38.91137 -8.08830 11059 ft 322 kts 275°
2026-05-01 13:16 38.91469 -8.11678 10648 ft 321 kts 275°
2026-05-01 13:16 38.91792 -8.14514 10246 ft 321 kts 274°
2026-05-01 13:17 38.92705 -8.22988 8950 ft 319 kts 275°
2026-05-01 13:17 38.93002 -8.25808 8513 ft 318 kts 275°
2026-05-01 13:18 38.93589 -8.31420 7669 ft 316 kts 275°
2026-05-01 13:18 38.93880 -8.34218 7259 ft 315 kts 276°
2026-05-01 13:18 38.94169 -8.37002 6867 ft 314 kts 275°
2026-05-01 13:18 38.94458 -8.39782 6453 ft 314 kts 275°
2026-05-01 13:19 38.94745 -8.42557 6015 ft 313 kts 276°
2026-05-01 13:19 38.95031 -8.45319 5588 ft 312 kts 276°
2026-05-01 13:19 38.95597 -8.50794 4728 ft 302 kts 276°
2026-05-01 13:20 38.95867 -8.53423 4305 ft 293 kts 275°
2026-05-01 13:20 38.96126 -8.55949 4159 ft 275 kts 275°
2026-05-01 13:20 38.96222 -8.57531 4139 ft 262 kts 271°
2026-05-01 13:21 38.96250 -8.62122 4153 ft 258 kts 269°
2026-05-01 13:21 38.96264 -8.64444 4157 ft 260 kts 268°
2026-05-01 13:21 38.96336 -8.66757 4141 ft 261 kts 279°
2026-05-01 13:21 38.97125 -8.68827 4151 ft 261 kts 312°
2026-05-01 13:22 38.98628 -8.70113 4156 ft 263 kts 339°
2026-05-01 13:22 39.00409 -8.70687 4156 ft 265 kts 349°
2026-05-01 13:22 39.02236 -8.71095 4155 ft 267 kts 350°
2026-05-01 13:22 39.04072 -8.71505 4154 ft 268 kts 349°
2026-05-01 13:23 39.05907 -8.71935 4161 ft 266 kts 347°
2026-05-01 13:23 39.07570 -8.72830 4160 ft 257 kts 324°
2026-05-01 13:23 39.09058 -8.74143 4159 ft 261 kts 324°
2026-05-01 13:23 39.10567 -8.75440 4170 ft 261 kts 326°
2026-05-01 13:24 39.12087 -8.76731 4173 ft 263 kts 326°
2026-05-01 13:24 39.13615 -8.78023 4166 ft 263 kts 325°
2026-05-01 13:24 39.15126 -8.79351 4163 ft 263 kts 318°
2026-05-01 13:25 39.17238 -8.83123 4169 ft 260 kts 302°
2026-05-01 13:25 39.18240 -8.85055 4173 ft 260 kts 302°
2026-05-01 13:25 39.19250 -8.86982 4168 ft 259 kts 303°
2026-05-01 13:25 39.20263 -8.88907 4164 ft 259 kts 303°
2026-05-01 13:26 39.21181 -8.90893 4152 ft 258 kts 289°
2026-05-01 13:26 39.21565 -8.93135 4173 ft 256 kts 279°
2026-05-01 13:26 39.21891 -8.95391 4184 ft 256 kts 280°
2026-05-01 13:26 39.22236 -8.97643 4176 ft 257 kts 280°
2026-05-01 13:27 39.22592 -8.99911 4181 ft 258 kts 281°
2026-05-01 13:27 39.22949 -9.02176 4181 ft 258 kts 281°
2026-05-01 13:27 39.22757 -9.06696 4181 ft 256 kts 257°
2026-05-01 13:28 39.21837 -9.11140 4116 ft 261 kts 237°
2026-05-01 13:28 39.20567 -9.12695 4065 ft 253 kts 207°
2026-05-01 13:29 39.17187 -9.12844 4000 ft 248 kts 156°
2026-05-01 13:29 39.14324 -9.10388 4006 ft 249 kts 144°
2026-05-01 13:30 39.08718 -9.04999 3993 ft 254 kts 144°
2026-05-01 13:31 39.05824 -9.02271 3990 ft 256 kts 145°
2026-05-01 13:31 39.01454 -8.98479 3975 ft 254 kts 166°
2026-05-01 13:32 38.98242 -8.99599 3991 ft 247 kts 225°
2026-05-01 13:33 38.95733 -9.04473 3866 ft 200 kts 204°
2026-05-01 13:33 38.93151 -9.05557 3338 ft 191 kts 208°
2026-05-01 13:34 38.90702 -9.06864 2805 ft 189 kts 204°
2026-05-01 13:34 38.88301 -9.08141 2292 ft 180 kts 203°
2026-05-01 13:35 38.86184 -9.09274 1864 ft 151 kts 204°
2026-05-01 13:35 38.85236 -9.09783 1649 ft 145 kts 205°
2026-05-01 13:35 38.83416 -9.10760 1268 ft 145 kts 204°
2026-05-01 13:36 38.82497 -9.11250 1106 ft 145 kts 204°
2026-05-01 13:36 38.81558 -9.11764 844 ft 144 kts 202°
2026-05-01 13:36 38.79697 -9.12750 476 ft 144 kts 205°
2026-05-01 13:37 38.78793 -9.13237 366 ft 130 kts 205°
2026-05-01 13:37 38.78050 -9.13637 367 ft 101 kts 202°
2026-05-01 13:37 38.77642 -9.13856 363 ft 35 kts 201°
2026-05-01 13:37 38.77476 -9.13898 361 ft 20 kts 181°
2026-05-01 13:38 38.77238 -9.13890 354 ft 13 kts 178°
2026-05-01 13:38 38.77150 -9.13893 352 ft 13 kts 194°
2026-05-01 13:38 38.77059 -9.13890 353 ft 13 kts 167°
2026-05-01 13:39 38.76967 -9.13865 353 ft 14 kts 168°
2026-05-01 13:39 38.76868 -9.13839 346 ft 15 kts 167°
2026-05-01 13:39 38.76768 -9.13811 348 ft 14 kts 168°
2026-05-01 13:39 38.76673 -9.13786 344 ft 14 kts 169°
2026-05-01 13:40 38.76616 -9.13722 347 ft 10 kts 90°
2026-05-01 13:40 38.76579 -9.13665 350 ft 10 kts 178°
2026-05-01 13:40 38.76541 -9.13725 355 ft 9 kts 256°
2026-05-01 13:40 38.76491 -9.13743 347 ft 9 kts 169°
2026-05-01 13:41 38.76463 -9.13736 350 ft 0 kts 168°
2026-05-01 13:41 38.76458 -9.13734 348 ft 0 kts 168°